Regional Weather Roundup
Issued by NWS

Home | Current Version | Previous Version | Text Only | Print | Product List | Glossary Off
Versions: 1 2 3 4 5 6 7 8 9 10 11 12 13 14 15 16 17 18 19 20 21 22 23 24 25 26 27 28 29 30 31 32 33 34 35 36 37 38 39 40 41 42 43 44 45 46 47 48 49 50

000
ASUS43 KMPX 022201
RWRMN
WEATHER ROUNDUP FOR MINNESOTA
NATIONAL WEATHER SERVICE TWIN CITIES/CHANHASSEN MN
500 PM CDT TUE JUN 02 2015


NOTE: "FAIR" INDICATES FEW OR NO CLOUDS BELOW 12,000 FEET WITH NO
SIGNIFICANT WEATHER AND/OR OBSTRUCTIONS TO VISIBILITY. N/A MEANS
CURRENT SKY AND/OR WEATHER CONDITIONS ARE NOT AVAILABLE.

MNZ060>063-068>070-022300-
   Twin Cities Metro

CITY           SKY/WX    TMP DP  RH WIND       PRES   REMARKS
TWIN CITIES    PTSUNNY   75  53  46 SE15G25   29.94F
ST PAUL        MOSUNNY   76  54  46 S21G26    29.94F
CRYSTAL        PTSUNNY   75  51  43 S20G25    29.92F
BLAINE         MOSUNNY   77  54  44 S23G29    29.93F
LAKEVILLE      MOSUNNY   75  54  46 S14       29.95S
EDEN PRAIRIE   PTSUNNY   76  53  44 S21G28    29.92F
SOUTH ST PAUL  MOSUNNY   76  51  42 S13G22    29.95S
LAKE ELMO      FAIR      73  54  49 SE20G26   29.96F
$$
MNZ001>005-007-008-013>017-022>024-027-028-022300-
   Northwest Minnesota

CITY           SKY/WX    TMP DP  RH WIND       PRES   REMARKS
BEMIDJI        CLOUDY    71  54  54 S14       29.84F
HALLOCK        CLOUDY    63  61  94 NE5       29.81F
ROSEAU         CLOUDY    64  57  77 CALM      29.83S
WARROAD        DRIZZLE   63  57  82 SE6       29.83F
THIEF RVR FALL CLOUDY    66  59  77 S6        29.82F
CROOKSTON      PTSUNNY   70  61  73 CALM      29.80F
FOSSTON        CLOUDY    68  59  73 CALM      29.83S
DETROIT LAKES  MOSUNNY   73  55  53 SE16G24   29.83F
MOORHEAD       PTSUNNY   77  61  57 S16G24    29.77S
PARK RAPIDS    CLOUDY    73  51  46 S17G26    29.85S
MAHNOMEN       CLOUDY    70  58  66 S14G23    29.82S
$$
MNZ006-009>011-018-025>026-022300-
   North Central Minnesota

CITY           SKY/WX    TMP DP  RH WIND       PRES   REMARKS
BAUDETTE       CLOUDY    62  58  86 E5        29.85S
FLAG ISLAND    LGT RAIN  57  55  94 SE9       29.82F
INTL FALLS     CLOUDY    65  57  75 SE5       29.85F
WASKISH        CLOUDY    66  59  77 SE6       29.84F
BIG FORK       CLOUDY    70  52  52 S9        29.88S
LONGVILLE      CLOUDY    72  52  49 S15G22    29.87F
GRAND RAPIDS   CLOUDY    73  48  40 S13G22    29.88S
CRANE LAKE     CLOUDY    64  55  72 CALM      29.89F
ORR            CLOUDY    73  48  40 S5        29.85S
COOK           CLOUDY    73  46  38 S6        29.88S
WALKER         FAIR      71  51  50 S16G22    29.85F
$$
MNZ012-019>021-037-022300-
   Northeast Minnesota

CITY           SKY/WX    TMP DP  RH WIND       PRES   REMARKS
DULUTH         MOSUNNY   67  46  47 SE8       29.93F
ELY            CLOUDY    72  46  40 SE7       29.90F
HIBBING        CLOUDY    73  45  36 S10G20    29.89S
EVELETH        PTSUNNY   73  45  35 S13G18    29.90F
DULUTH HARBOR  MOSUNNY   48  43  81 NE8       29.96S
TWO HARBORS    MOSUNNY   70  52  52 E5        29.92F
SILVER BAY     PTSUNNY   70  46  43 NE5       29.92F
GRAND MARAIS     N/A     48  38  68 NE9       29.97F
G MARAIS ARPRT CLOUDY    61  37  41 CALM      29.99F
$$
MNZ029>031-032-039>041-046>048-054>057-064-022300-
   West Central Minnesota

CITY           SKY/WX    TMP DP  RH WIND       PRES   REMARKS
FERGUS FALLS   MOSUNNY   81  59  47 S22G31    29.78F
WHEATON        SUNNY     81  61  50 S17G29    29.77S
MORRIS         SUNNY     82  57  42 S24G36    29.77F
ALEXANDRIA     MOSUNNY   77  54  44 S22G31    29.84F
ELBOW LAKE     FAIR      80  60  50 S24G33    29.78F
WADENA         PTSUNNY   70  55  60 SE14      29.84F
GLENWOOD       PTSUNNY   79  55  44 S21G35    29.84F
APPLETON       SUNNY     84  57  39 S22G30    29.77F
BENSON         MOSUNNY   81  54  39 S21G30    29.79F
ORTONVILLE     SUNNY     82  61  47 S16G29    29.76F
MADISON        SUNNY     81  57  44 S28G33    29.77F
WILLMAR        FAIR      81  55  41 S21G26    29.85F
$$
MNZ033>034-036-042>043-049>051-058-059-022300-
   Central Minnesota

CITY           SKY/WX    TMP DP  RH WIND       PRES   REMARKS
ST CLOUD       CLOUDY    72  54  53 SE18      29.89S
SAUK CENTRE    MOCLDY    77  51  40 S17G30    29.86F
PAYNESVILLE    CLOUDY    74  48  38 SE18G25   29.87F
AITKIN         CLOUDY    72  52  49 S13       29.89S
PINE RIVER     CLOUDY    70  52  52 S13G23    29.91R
BRAINERD       CLOUDY    70  53  54 S12       29.90S
STAPLES        CLOUDY    68  52  56 S10G22    29.87F
LONG PRAIRIE   CLOUDY    75  52  43 SE23G30   29.87F
LITTLE FALLS   CLOUDY    72  52  49 SE14      29.89F
LITCHFIELD     PTSUNNY   79  52  38 S8G21     29.89R
BUFFALO        CLOUDY    73  54  51 SE14G21   29.91F
MAPLE LAKE     CLOUDY    76  57  51 SE8G17    29.91R
$$
MNZ037-044-045-052-053-022300-
   East Central Minnesota

CITY           SKY/WX    TMP DP  RH WIND       PRES   REMARKS
PRINCETON      CLOUDY    73  54  49 SE13      29.91F
MORA           CLOUDY    72  50  46 S16G24    29.93S
CAMBRIDGE      CLOUDY    73  55  53 SE10G21   29.90F
RUSH CITY      PTSUNNY   74  54  50 S12G21    29.92F
MOOSE LAKE     PTSUNNY   72  50  46 S13G20    29.90S
HINCKLEY       FAIR      73  55  53 S15G23    29.93S
CLOQUET        PTSUNNY   73  46  38 S14       29.92S
MCGREGOR       CLOUDY    73  52  46 S14G23    29.91S
$$
MNZ071>073-080-081-089-090-097-098-022300-
   Southwest Minnesota

CITY           SKY/WX    TMP DP  RH WIND       PRES   REMARKS
MONTEVIDEO     MOSUNNY   82  59  44 S18G30    29.80F
GRANITE FALLS  MOSUNNY   82  57  42 SE28G36   29.83F
CANBY          SUNNY     79  60  50 S18G31    29.79F
MARSHALL       SUNNY     81  57  44 S28G36    29.81F
REDWOOD FALLS  PTSUNNY   77  55  46 S23G30    29.86F
OLIVIA         PTSUNNY   75  52  43 S23       29.86F
PIPESTONE      MOSUNNY   79  59  50 S25G35    29.85S
WINDOM         PTSUNNY   75  55  50 S17G23    29.90F
WORTHINGTON    PTSUNNY   77  55  47 S20G25    29.89F
JACKSON        PTSUNNY   75  55  50 S18G24    29.93F
TRACY          MOSUNNY   80  58  48 S21G32    29.85F
SLAYTON        MOSUNNY   79  56  44 SE23G30   29.87F
$$
MNZ065>067-074>077-082>085-091>093-022300-
   South Central Minnesota

CITY           SKY/WX    TMP DP  RH WIND       PRES   REMARKS
MANKATO        MOSUNNY   79  50  36 S20G25    29.92F
NEW ULM        PTSUNNY   75  45  33 S20G26    29.90R
ST JAMES       MOSUNNY   77  50  38 SE20G25   29.92F
FAIRMONT       MOSUNNY   75  46  35 S21G28    29.93F
GLENCOE        PTSUNNY   78  53  41 S12G28    29.90F
FARIBAULT      MOSUNNY   75  54  46 S13G22    29.96F
OWATONNA       MOSUNNY   75  52  43 S18G24    29.96F
WASECA         MOSUNNY   77  50  38 S17G25    29.97F
ALBERT LEA     SUNNY     75  52  43 S15G25    29.97F
$$
MNZ078>079-086>088-094>096-022300-
   Southeast Minnesota

CITY           SKY/WX    TMP DP  RH WIND       PRES   REMARKS
ROCHESTER      MOSUNNY   73  51  46 S15       30.01F
RED WING       MOSUNNY   75  48  38 SE14G21   29.96F
STANTON        SUNNY     75  52  44 S12G21    29.95F
DODGE CENTER   SUNNY     73  50  43 S20       29.99F
WINONA         CLOUDY    73  52  46 S7        30.01F
AUSTIN         SUNNY     73  54  49 S16       29.99F
PRESTON        PTSUNNY   72  50  47 S16       30.02F
$$
ABBREVIATIONS USED IN REMARKS
   TC - TEMPERATURES IN CELSIUS
  WCI - WIND CHILL INDEX
   HX - HEAT INDEX
  VSB - VISIBILITY
$$


USA.gov is the U.S. government's official web portal to all federal, state and local government web resources and services.